Powrót do katalogu

STARLINK-31408

AktywnyŁącznośćVLEO
NORAD 59240·PAYLOAD·🇺🇸 United States

Wystrzelony Mar 16, 2024 z Cape Canaveral Space Force Station

Loading…

Następne Przeloty (najbliższe 24 godziny)

TLE

ŚwieżeSource: CelesTrak SupGP

Epoka: Sep 15, 2026, 02:22 UTC

1 59240C 24049K   26258.09909722  .00012939  00000+0  46867-3 0  2585
2 59240  43.0007 154.1453 0001281 276.8012 327.3685 15.27570921    11

Śledź STARLINK-31408 w czasie rzeczywistym z AllMySat

Download on the App Store